Location: Date Creek
(34.2167°N, 113.0301°W)
Time: 22:41:28
(UTC-07:00)

Amateur Radio Satellites - All Passes

Search period start: 18 January 2018 22:11
Search period end: 19 January 2018 22:11
Location: Date Creek, 34.2167°N, 113.0301°W

Satellite Date Start Highest point End Downlink Frequencies (MHz)
Time Altitude Azimuth
nSIGHT-1 18 Jan 22:16:18 22:18:40 19° 327° (NNW) 22:21:03 .
ISS 18 Jan 22:19:16 22:22:04 26° 324° (NW) 22:24:53 437.550
YUBILEINY 18 Jan 22:26:28 22:33:11 25° 83° (E) 22:39:51 435.215
ESTCUBE 1 18 Jan 22:41:10 22:45:08 31° 71° (ENE) 22:49:07 437.505/2401.250
PRISM 18 Jan 23:01:21 23:05:20 54° 101° (E) 23:09:19 437.425
SPROUT 18 Jan 23:08:37 23:10:25 13° 67° (ENE) 23:12:14 437.525
AIST 2D 18 Jan 23:10:11 23:13:10 27° 97° (E) 23:16:08 435.315
LO-87 18 Jan 23:21:59 23:25:26 56° 260° (W) 23:28:56 145.935 - 145.965
AO-85 18 Jan 23:24:33 23:28:07 19° 251° (WSW) 23:31:45 145.980
QB50P2 18 Jan 23:27:20 23:29:45 15° 94° (E) 23:32:11 145.880/145.840
TIGRISAT 18 Jan 23:28:37 23:31:42 18° 292° (WNW) 23:34:47 435.000
UNISAT 6 18 Jan 23:44:51 23:46:10 11° 295° (WNW) 23:47:29 437.425
EO-79 18 Jan 23:57:56 00:01:43 31° 97° (E) 00:05:30 145.935-145.965
DUCHIFAT 1 18 Jan 23:59:58 00:03:24 24° 96° (E) 00:06:49 145.980
ESTCUBE 1 19 Jan 00:18:36 00:21:55 20° 265° (W) 00:25:15 437.505/2401.250
YUBILEINY 19 Jan 00:20:34 00:29:14 60° 280° (W) 00:37:56 435.215
VELOX 1 19 Jan 00:26:55 00:31:13 58° 75° (ENE) 00:35:31 145.980
POLYITAN 1 19 Jan 00:31:53 00:36:12 83° 102° (ESE) 00:40:28 437.675
SPROUT 19 Jan 00:41:48 00:45:51 45° 261° (W) 00:49:56 437.525
AIST 2D 19 Jan 00:44:28 00:46:01 13° 291° (WNW) 00:47:35 435.315
O/OREOS (USA 219) 19 Jan 00:49:34 00:53:57 52° 106° (ESE) 00:58:20 437.305
NANOSAT C BR1 19 Jan 00:49:46 00:54:00 68° 284° (WNW) 00:58:13 145.865
DX 1 19 Jan 00:51:35 00:54:39 19° 68° (ENE) 00:57:43 434.975-435.025
QB50P2 19 Jan 01:01:41 01:05:37 37° 287° (WNW) 01:09:33 145.880/145.840
BUGSAT 1 19 Jan 01:09:57 01:13:48 33° 98° (E) 01:17:37 437.445
Gurwin Techsat 1B 19 Jan 01:11:11 01:14:20 16° 93° (E) 01:17:27 435.225
EO-79 19 Jan 01:34:16 01:37:12 18° 291° (WNW) 01:40:08 145.935-145.965
DUCHIFAT 1 19 Jan 01:35:32 01:38:54 23° 290° (WNW) 01:42:15 145.980
AO-91 19 Jan 01:39:31 01:43:54 51° 100° (E) 01:48:43 145.960
Oscar 19 19 Jan 01:41:42 01:46:39 44° 100° (E) 01:51:32 437.125/150
50 SAT 19 Jan 01:45:07 01:48:11 82° 79° (E) 01:51:15 437.505
NO-84 19 Jan 01:47:13 01:50:09 81° 48° (NE) 01:53:16 435.350 FM
MOZHAYETS 4 19 Jan 02:01:16 02:04:29 19° 68° (ENE) 02:07:43
UKube-1 19 Jan 02:19:04 02:23:19 65° 259° (WSW) 02:27:35 .
DX 1 19 Jan 02:26:47 02:30:35 30° 262° (W) 02:34:23 434.975-435.025
O/OREOS (USA 219) 19 Jan 02:31:35 02:33:39 13° 301° (WNW) 02:35:42 437.305
ITUPSAT 1 19 Jan 02:45:44 02:49:59 33° 71° (ENE) 02:54:16 437.325
BUGSAT 1 19 Jan 02:46:05 02:48:49 17° 292° (WNW) 02:51:34 437.445
Gurwin Techsat 1B 19 Jan 02:49:22 02:54:31 52° 287° (WNW) 02:59:39 435.225
nSIGHT-1 19 Jan 03:10:24 03:11:18 11° 27° (NNE) 03:12:13 .
AO-91 19 Jan 03:17:44 03:20:01 14° 291° (WNW) 03:22:24 145.960
Oscar 19 19 Jan 03:22:04 03:25:34 19° 294° (WNW) 03:29:02 437.125/150
BEESAT 19 Jan 03:26:20 03:31:05 85° 258° (WSW) 03:35:52 436.000
AO-7 19 Jan 03:28:04 03:35:58 44° 101° (E) 03:43:46 .
CUBESAT XI-V 19 Jan 03:34:09 03:38:38 46° 74° (ENE) 03:43:08 437.345
MOZHAYETS 4 19 Jan 03:37:08 03:41:20 35° 262° (W) 03:45:35
FALCONSAT 3 19 Jan 03:49:12 03:51:33 16° 150° (SSE) 03:53:55 435.103
ITAMSAT 1 19 Jan 04:22:08 04:27:21 79° 103° (ESE) 04:32:33 435.822/435.867
ITUPSAT 1 19 Jan 04:24:17 04:27:49 21° 265° (W) 04:31:23 437.325
nSIGHT-1 19 Jan 04:44:42 04:47:53 87° 46° (NE) 04:51:03 .
ISS 19 Jan 04:49:24 04:52:38 60° 41° (NE) 04:55:52 437.550
M-CUBED/EXP-1 PRIME 19 Jan 05:03:12 05:06:14 33° 103° (ESE) 05:09:11 437.505
SO-50 19 Jan 05:09:08 05:12:29 21° 110° (ESE) 05:15:52 436.795
CUBESAT XI-V 19 Jan 05:13:42 05:16:11 14° 267° (W) 05:18:39 437.345
DOVE 4 19 Jan 05:16:31 05:20:52 77° 102° (ESE) 05:25:29 437.250
KKS-1 19 Jan 05:20:42 05:25:05 79° 256° (WSW) 05:29:31 437.445
AO-7 19 Jan 05:21:02 05:28:28 37° 297° (WNW) 05:35:53 .
FALCONSAT 3 19 Jan 05:26:37 05:30:15 61° 162° (SSE) 05:33:52 435.103
XW-2B 19 Jan 05:35:03 05:36:29 12° 93° (E) 05:37:54 145.730 - 145.750
CUTE-I 19 Jan 05:42:15 05:45:22 16° 93° (E) 05:48:30 437.470
STARS 19 Jan 05:42:32 05:46:50 66° 75° (ENE) 05:51:10 437.465
LilacSat-2 19 Jan 05:58:45 06:02:03 28° 97° (E) 06:05:18 437.200
XW-2C 19 Jan 06:03:33 06:06:53 30° 97° (E) 06:10:11 145.795 - 145.815
ITAMSAT 1 19 Jan 06:04:45 06:06:05 11° 298° (WNW) 06:07:25 435.822/435.867
XW-2F 19 Jan 06:41:34 06:45:18 84° 283° (WNW) 06:49:00 145.980 - 146.000
KAITUO 1B 19 Jan 06:43:23 06:47:04 74° 101° (ESE) 06:50:43 145.475/437.950
SO-50 19 Jan 06:48:44 06:52:42 31° 305° (NW) 06:56:45 436.795
XW-2D 19 Jan 06:49:34 06:53:15 55° 284° (WNW) 06:56:53 145.860 - 145.880
RS-15 19 Jan 06:55:41 07:04:23 23° 101° (E) 07:13:01 29.354- 29.394
NUDT-PHONESAT 19 Jan 06:58:06 07:01:45 72° 284° (WNW) 07:05:22 437.300
FALCONSAT 3 19 Jan 07:05:40 07:09:19 71° 357° (N) 07:12:59 435.103
XW-2B 19 Jan 07:07:20 07:10:44 33° 286° (WNW) 07:14:06 145.730 - 145.750
SEEDS 19 Jan 07:18:16 07:22:07 36° 98° (E) 07:25:56 437.485
CUBEBUG 2 19 Jan 07:18:24 07:22:55 43° 98° (E) 07:27:23 437.445
STRAND 1 19 Jan 07:20:24 07:25:28 88° 256° (WSW) 07:30:35 437.568
CUTE-I 19 Jan 07:20:30 07:25:40 53° 287° (WNW) 07:30:49 437.470
HO-68 19 Jan 07:24:47 07:31:56 69° 103° (ESE) 07:39:03 435.675
CUTE 1.7 + AOD 2 19 Jan 07:26:40 07:30:53 87° 106° (ESE) 07:35:04 437.475
UWE-3 19 Jan 07:28:15 07:32:18 29° 96° (E) 07:36:18 435.000/436.395/437.385
FO-29 19 Jan 07:30:04 07:36:56 52° 73° (ENE) 07:43:02 435.910
LilacSat-2 19 Jan 07:33:52 07:36:01 15° 291° (WNW) 07:38:10 437.200
XW-2C 19 Jan 07:38:46 07:40:44 14° 291° (WNW) 07:42:42 145.795 - 145.815
XW-2A 19 Jan 07:49:18 07:52:04 24° 97° (E) 07:54:49 145.665 - 145.685
ZACube-1 19 Jan 07:56:22 08:00:21 29° 96° (E) 08:04:16 437.345
AO-73 19 Jan 08:04:18 08:08:21 31° 97° (E) 08:12:19 145.935
Oscar 11 19 Jan 08:39:29 08:43:40 48° 99° (E) 08:47:49 .
AAUSAT CUBESAT 2 19 Jan 08:41:08 08:45:06 50° 285° (WNW) 08:49:02 437.432
FALCONSAT 3 19 Jan 08:44:48 08:48:28 82° 192° (SSW) 08:52:07 435.103
TIGRISAT 19 Jan 08:46:33 08:49:52 21° 69° (ENE) 08:53:16 435.000
SEEDS 19 Jan 08:55:09 08:57:26 15° 292° (WNW) 08:59:42 437.485
CUBEBUG 2 19 Jan 08:56:06 08:59:07 17° 292° (WNW) 09:02:07 437.445
UNISAT 6 19 Jan 09:00:35 09:04:32 34° 72° (ENE) 09:08:35 437.425
RS-15 19 Jan 09:03:05 09:15:26 84° 298° (WNW) 09:27:44 29.354- 29.394
UWE-3 19 Jan 09:04:53 09:08:32 23° 290° (WNW) 09:12:08 435.000/436.395/437.385
BEESAT 3 19 Jan 09:06:57 09:08:45 13° 108° (ESE) 09:10:33 437.485
HO-68 19 Jan 09:14:05 09:18:56 20° 299° (WNW) 09:23:48 435.675
FO-29 19 Jan 09:16:35 09:22:01 23° 264° (W) 09:27:04 435.910
XW-2A 19 Jan 09:22:52 09:24:28 13° 291° (WNW) 09:26:06 145.665 - 145.685
ZACube-1 19 Jan 09:32:58 09:36:23 21° 291° (WNW) 09:39:46 437.345
DELFI C3 19 Jan 09:35:28 09:39:04 34° 98° (E) 09:42:39 145.870
AO-73 19 Jan 09:41:02 09:44:18 20° 291° (WNW) 09:47:31 145.935
PRISM 19 Jan 09:47:17 09:50:29 23° 70° (ENE) 09:53:41 437.425
PCSat 19 Jan 10:10:40 10:15:59 64° 113° (ESE) 10:21:20 145.827
JUGNU 19 Jan 10:15:24 10:17:12 11° 165° (SSE) 10:19:00 437.505
Oscar 11 19 Jan 10:17:35 10:19:19 12° 294° (WNW) 10:21:03 .
TIGRISAT 19 Jan 10:22:38 10:26:22 27° 264° (W) 10:30:11 435.000
FALCONSAT 3 19 Jan 10:24:13 10:27:17 25° 207° (SSW) 10:30:21 435.103
YUBILEINY 19 Jan 10:35:19 10:43:54 59° 80° (E) 10:52:25 435.215
Max Valier Satellite 19 Jan 10:37:20 10:40:55 49° 284° (WNW) 10:44:26 145.860
UNISAT 6 19 Jan 10:38:27 10:41:18 17° 266° (W) 10:44:13 437.425
BEESAT 3 19 Jan 10:42:06 10:45:51 41° 302° (WNW) 10:49:39 437.485
EO-79 19 Jan 10:47:48 10:50:10 15° 67° (ENE) 10:52:32 145.935-145.965
DUCHIFAT 1 19 Jan 10:50:03 10:51:19 11° 66° (ENE) 10:52:35 145.980
LO-87 19 Jan 10:53:21 10:55:16 14° 94° (E) 10:57:11 145.935 - 145.965
EO-88 19 Jan 11:00:32 11:03:54 37° 286° (WNW) 11:07:15 145.990 - 145.960
O/OREOS (USA 219) 19 Jan 11:03:08 11:07:32 53° 69° (ENE) 11:11:53 437.305
DELFI C3 19 Jan 11:11:29 11:13:27 14° 292° (WNW) 11:15:24 145.870
AIST 2D 19 Jan 11:12:38 11:16:07 65° 259° (W) 11:19:37 435.315
RS-15 19 Jan 11:20:18 11:29:56 26° 322° (NW) 11:39:29 29.354- 29.394
POLYITAN 1 19 Jan 11:20:35 11:24:26 36° 72° (ENE) 11:28:19 437.675
PRISM 19 Jan 11:22:28 11:25:37 22° 264° (W) 11:28:47 437.425
BEESAT 2 19 Jan 11:25:29 11:29:24 56° 301° (WNW) 11:33:23 435.950
NANOSAT C BR1 19 Jan 11:37:40 11:41:43 51° 74° (ENE) 11:45:49 145.865
QB50P2 19 Jan 11:49:42 11:53:55 84° 255° (WSW) 11:58:11 145.880/145.840
AO-85 19 Jan 11:54:54 11:58:18 30° 112° (ESE) 12:01:52 145.980
PCSat 19 Jan 11:56:26 11:59:49 17° 309° (NW) 12:03:13 145.827
BUGSAT 1 19 Jan 11:57:18 11:59:27 14° 67° (ENE) 12:01:37 437.445
JUGNU 19 Jan 12:01:36 12:05:28 18° 175° (S) 12:09:21 437.505
ESTCUBE 1 19 Jan 12:13:10 12:17:38 72° 285° (WNW) 12:22:04 437.505/2401.250
EO-79 19 Jan 12:21:38 12:25:32 37° 262° (W) 12:29:29 145.935-145.965
VELOX 1 19 Jan 12:21:52 12:24:16 14° 94° (E) 12:26:40 145.980
DUCHIFAT 1 19 Jan 12:22:24 12:26:27 50° 260° (W) 12:30:34 145.980
LO-87 19 Jan 12:25:33 12:28:39 27° 287° (WNW) 12:31:44 145.935 - 145.965
Gurwin Techsat 1B 19 Jan 12:28:44 12:32:20 19° 66° (ENE) 12:35:56 435.225
SPROUT 19 Jan 12:30:46 12:34:45 37° 99° (E) 12:38:42 437.525
YUBILEINY 19 Jan 12:33:22 12:40:00 25° 277° (W) 12:46:37 435.215
AO-91 19 Jan 12:35:07 12:37:31 18° 71° (ENE) 12:39:56 145.960
O/OREOS (USA 219) 19 Jan 12:45:24 12:46:22 11° 262° (W) 12:47:19 437.305
Oscar 19 19 Jan 12:54:45 12:59:39 45° 72° (ENE) 13:04:36 437.125/150
POLYITAN 1 19 Jan 12:57:53 13:00:17 15° 266° (W) 13:02:42 437.675
NANOSAT C BR1 19 Jan 13:17:18 13:17:40 10° 268° (W) 13:18:02 145.865
BUGSAT 1 19 Jan 13:30:42 13:34:25 36° 261° (W) 13:38:14 437.445
AO-85 19 Jan 13:35:52 13:38:43 19° 310° (NW) 13:41:42 145.980
RS-15 19 Jan 13:45:00 13:49:01 12° 359° (N) 13:52:59 29.354- 29.394
JUGNU 19 Jan 13:49:51 13:53:47 19° 185° (S) 13:57:43 437.505
VELOX 1 19 Jan 13:56:43 14:00:49 40° 287° (WNW) 14:04:54 145.980
Gurwin Techsat 1B 19 Jan 14:06:47 14:11:51 47° 260° (W) 14:16:58 435.225
SRMSAT 19 Jan 14:07:24 14:10:52 16° 169° (S) 14:14:20 437.500
SPROUT 19 Jan 14:07:43 14:10:16 16° 292° (WNW) 14:12:50 437.525
UKube-1 19 Jan 14:09:57 14:13:33 26° 97° (E) 14:17:08 .
AO-91 19 Jan 14:11:49 14:13:56 16° 265° (W) 14:16:03 145.960
DX 1 19 Jan 14:17:46 14:22:03 58° 101° (E) 14:26:19 434.975-435.025
AO-7 19 Jan 14:22:56 14:30:40 45° 65° (ENE) 14:38:27 .
50 SAT 19 Jan 14:34:27 14:37:33 74° 284° (WNW) 14:40:38 437.505
Oscar 19 19 Jan 14:35:42 14:39:07 18° 266° (W) 14:42:34 437.125/150
ITUPSAT 1 19 Jan 14:52:09 14:53:30 11° 92° (E) 14:54:51 437.325
SO-50 19 Jan 15:22:29 15:27:13 80° 61° (ENE) 15:32:00 436.795
BEESAT 19 Jan 15:30:20 15:34:38 32° 98° (E) 15:38:53 436.000
MOZHAYETS 4 19 Jan 15:35:12 15:39:50 71° 101° (E) 15:44:23
CUBESAT XI-V 19 Jan 15:35:41 15:38:19 15° 93° (E) 15:40:55 437.345
ITAMSAT 1 19 Jan 15:36:20 15:41:29 83° 76° (ENE) 15:46:40 435.822/435.867
JUGNU 19 Jan 15:39:52 15:42:04 12° 194° (SSW) 15:44:15 437.505
M-CUBED/EXP-1 PRIME 19 Jan 15:44:23 15:48:13 29° 68° (ENE) 15:51:52 437.505
UKube-1 19 Jan 15:46:06 15:49:23 22° 291° (WNW) 15:52:40 .
SRMSAT 19 Jan 15:55:07 15:59:21 20° 180° (S) 16:03:36 437.500
DX 1 19 Jan 15:56:48 15:57:41 11° 295° (WNW) 15:58:32 434.975-435.025
RS-15 19 Jan 15:59:15 16:08:12 24° 35° (NE) 16:16:46 29.354- 29.394
AO-7 19 Jan 16:15:55 16:23:23 36° 261° (W) 16:30:57 .
DOVE 4 19 Jan 16:18:30 16:22:42 48° 75° (ENE) 16:26:46 437.250
ITUPSAT 1 19 Jan 16:26:53 16:31:38 61° 286° (WNW) 16:36:21 437.325
NO-84 19 Jan 16:58:43 17:01:45 41° 129° (SE) 17:04:36 435.350 FM
CUTE-I 19 Jan 17:00:29 17:04:08 19° 66° (ENE) 17:07:46 437.470
BEESAT 19 Jan 17:08:30 17:12:09 22° 292° (WNW) 17:15:48 436.000
CUBESAT XI-V 19 Jan 17:11:29 17:15:49 41° 287° (WNW) 17:20:07 437.345
KKS-1 19 Jan 17:15:37 17:19:19 25° 97° (E) 17:23:00 437.445
XW-2F 19 Jan 17:18:42 17:21:51 25° 72° (ENE) 17:24:59 145.980 - 146.000
M-CUBED/EXP-1 PRIME 19 Jan 17:19:06 17:22:29 21° 259° (WSW) 17:25:45 437.505
KAITUO 1B 19 Jan 17:20:04 17:22:46 19° 71° (ENE) 17:25:29 145.475/437.950
XW-2D 19 Jan 17:26:40 17:30:11 36° 74° (ENE) 17:33:43 145.860 - 145.880
NUDT-PHONESAT 19 Jan 17:33:16 17:36:24 26° 73° (ENE) 17:39:33 437.300
STARS 19 Jan 17:36:36 17:39:18 16° 94° (E) 17:42:00 437.465
XW-2B 19 Jan 17:43:56 17:47:42 60° 76° (ENE) 17:51:28 145.730 - 145.750
SRMSAT 19 Jan 17:44:13 17:47:51 16° 190° (S) 17:51:28 437.500
HO-68 19 Jan 17:49:43 17:56:02 35° 66° (ENE) 18:02:21 435.675
DOVE 4 19 Jan 17:59:26 18:00:33 11° 267° (W) 18:01:40 437.250
SEEDS 19 Jan 18:07:05 18:09:46 17° 69° (ENE) 18:12:24 437.485
LilacSat-2 19 Jan 18:10:07 18:13:53 51° 261° (W) 18:17:39 437.200
RS-15 19 Jan 18:11:02 18:22:44 82° 61° (ENE) 18:33:47 29.354- 29.394
CUBEBUG 2 19 Jan 18:13:22 18:16:39 21° 69° (ENE) 18:20:01 437.445
XW-2C 19 Jan 18:14:14 18:17:56 49° 260° (W) 18:21:40 145.795 - 145.815
CUTE 1.7 + AOD 2 19 Jan 18:15:23 18:19:17 36° 73° (ENE) 18:23:12 437.475
UWE-3 19 Jan 18:22:37 18:25:07 15° 67° (ENE) 18:27:39 435.000/436.395/437.385
NO-84 19 Jan 18:37:37 18:39:01 12° 322° (NW) 18:40:23 435.350 FM
CUTE-I 19 Jan 18:38:42 18:43:46 46° 260° (W) 18:48:52 437.470
ZACube-1 19 Jan 18:49:25 18:51:58 15° 67° (ENE) 18:54:34 437.345
KKS-1 19 Jan 18:52:10 18:55:43 24° 290° (WNW) 18:59:16 437.445
XW-2F 19 Jan 18:53:20 18:55:53 17° 265° (W) 18:58:25 145.980 - 146.000
KAITUO 1B 19 Jan 18:53:37 18:56:34 22° 264° (W) 18:59:31 145.475/437.950
AO-73 19 Jan 18:56:53 18:59:36 16° 67° (ENE) 19:02:21 145.935
BEESAT 3 19 Jan 19:01:57 19:05:27 31° 56° (NE) 19:08:52 437.485
PCSat 19 Jan 19:02:47 19:07:10 24° 54° (NE) 19:11:30 145.827
XW-2D 19 Jan 19:03:02 19:04:26 12° 267° (W) 19:05:51 145.860 - 145.880
NUDT-PHONESAT 19 Jan 19:07:56 19:10:12 15° 266° (W) 19:12:29 437.300
STARS 19 Jan 19:11:39 19:15:42 37° 288° (WNW) 19:19:45 437.465
AAUSAT CUBESAT 2 19 Jan 19:26:48 19:30:52 60° 76° (ENE) 19:34:56 437.432
Oscar 11 19 Jan 19:30:54 19:34:22 24° 70° (ENE) 19:37:49 .
STRAND 1 19 Jan 19:34:42 19:39:35 43° 99° (E) 19:44:26 437.568
HO-68 19 Jan 19:37:02 19:43:35 38° 261° (W) 19:50:10 435.675
SEEDS 19 Jan 19:41:18 19:45:07 33° 262° (W) 19:48:56 437.485
nSIGHT-1 19 Jan 19:44:11 19:45:52 14° 127° (SE) 19:47:31 .
BEESAT 2 19 Jan 19:46:39 19:49:58 25° 54° (NE) 19:53:15 435.950
XW-2A 19 Jan 19:48:00 19:51:25 79° 259° (WSW) 19:54:51 145.665 - 145.685
CUBEBUG 2 19 Jan 19:49:24 19:53:04 27° 264° (W) 19:56:50 437.445
CUTE 1.7 + AOD 2 19 Jan 19:52:43 19:55:11 15° 267° (W) 19:57:39 437.475
ISS 19 Jan 19:52:43 19:53:36 11° 126° (SE) 19:54:30 437.550
UWE-3 19 Jan 19:57:01 20:01:08 41° 262° (W) 20:05:23 435.000/436.395/437.385
DELFI C3 19 Jan 20:18:43 20:20:18 12° 68° (ENE) 20:21:55 145.870
ZACube-1 19 Jan 20:23:41 20:27:49 41° 262° (W) 20:32:05 437.345
RS-15 19 Jan 20:25:50 20:33:35 22° 260° (W) 20:41:09 29.354- 29.394
FO-29 19 Jan 20:28:22 20:33:27 56° 101° (E) 20:38:39 435.910
AO-85 19 Jan 20:29:14 20:32:11 15° 49° (NE) 20:35:13 145.980
AO-73 19 Jan 20:31:21 20:35:26 38° 262° (W) 20:39:38 145.935
BEESAT 3 19 Jan 20:40:14 20:42:40 16° 250° (WSW) 20:45:02 437.485
PCSat 19 Jan 20:45:37 20:50:38 40° 250° (WSW) 20:55:39 145.827
UNISAT 6 19 Jan 20:58:36 20:59:17 10° 91° (E) 20:59:58 437.425
Oscar 11 19 Jan 21:06:48 21:10:21 24° 264° (W) 21:13:54 .
Max Valier Satellite 19 Jan 21:11:58 21:15:23 36° 74° (ENE) 21:18:50 145.860
STRAND 1 19 Jan 21:14:49 21:18:23 19° 293° (WNW) 21:21:57 437.568
nSIGHT-1 19 Jan 21:18:46 21:21:44 38° 321° (NW) 21:24:44 .
BEESAT 2 19 Jan 21:24:27 21:27:31 22° 249° (WSW) 21:30:34 435.950
ISS 19 Jan 21:26:32 21:29:42 51° 319° (NW) 21:32:54 437.550
EO-88 19 Jan 21:33:43 21:37:12 44° 75° (ENE) 21:40:41 145.990 - 145.960
YUBILEINY 19 Jan 21:42:37 21:44:29 11° 76° (ENE) 21:46:21 435.215
DELFI C3 19 Jan 21:51:00 21:54:39 38° 261° (W) 21:58:19 145.870
